[[{"header":{"parameterUnit":"m.s-1","parameterCategory":1,"la1":30.2991,"la2":30.254,"lo1":-89.0895,"lo2":-89.0444,"dy":0.0017,"dx":0.0017,"nx":28,"ny":28,"refTime":"2024-07-22T09:00:00:Z","depth":0,"parameterNumber":2,"parameterNumberName":"U-component_of_WINDS"},"data":[0,0,0,0,0,0,0,0,0,0,0,0,0,0,0,0,0,0,0,0,0,0,0,0,0,0,0,0,0,0,0,0,0,0,0,0,0,0,0,0,0,0,0,0,0,0,0,0,0,0,0,0,0,0,0,0,0,0,-0.1352,-0.1353,0,-0.1415,-0.1416,-0.1417,-0.1441,-0.1441,-0.1441,-0.1441,-0.1507,-0.1509,-0.1511,0,0,0,0,0,0,0,0,0,0,0,0,0,-0.1255,-0.1256,-0.1352,-0.1353,-0.1354,-0.1415,-0.1416,-0.1417,-0.1441,-0.1441,-0.1441,-0.144,-0.1506,-0.1509,-0.1511,0,0,0,0,0,0,0,0,0,0,0,0,0,-0.1305,-0.1257,-0.1352,-0.1373,-0.1376,-0.1415,-0.1416,-0.1417,-0.1441,-0.1441,-0.1441,-0.144,-0.1506,-0.1508,-0.1511,-0.1535,0,0,-0.152,-0.1521,0,0,0,0,0,0,0,0,-0.1302,-0.1309,-0.1369,-0.1372,-0.1375,-0.142,-0.1406,-0.1457,-0.1441,-0.1416,-0.1441,-0.144,-0.1478,-0.1484,-0.1496,-0.1538,-0.1541,-0.152,-0.1522,-0.1523,-0.1524,0,0,0,0,0,0,0,-0.1299,-0.1306,-0.1377,-0.137,-0.1373,-0.138,-0.1387,-0.1416,-0.1448,-0.1418,-0.142,-0.1427,-0.148,-0.1493,-0.1498,-0.1542,-0.152,-0.1523,-0.1525,-0.1526,-0.1607,-0.1607,0,0,0,0,0,0,-0.1292,-0.1303,-0.1375,-0.1379,-0.1337,-0.1382,-0.139,-0.1406,-0.1448,-0.1454,-0.1428,-0.1428,-0.1488,-0.1494,-0.15,-0.1531,-0.1523,-0.1526,-0.1528,-0.1606,-0.1607,-0.1607,0,0,0,0,0,0,-0.1289,-0.1298,-0.1373,-0.1342,-0.1352,-0.1384,-0.1402,-0.1407,-0.142,-0.1455,-0.1461,-0.1435,-0.1488,-0.1496,-0.1526,-0.1533,-0.1528,-0.153,-0.1606,-0.1606,-0.1607,-0.1591,0,0,0,0,0,0,-0.1286,-0.1297,-0.1305,-0.1342,-0.1353,-0.1396,-0.1402,-0.1409,-0.1425,-0.1427,-0.1463,-0.1469,-0.1489,-0.1521,-0.1529,-0.1537,-0.1532,-0.1605,-0.1606,-0.1607,-0.1591,-0.1591,-0.1591,0,0,0,0,0,-0.1283,-0.1299,-0.1306,-0.1314,-0.1365,-0.1397,-0.1404,-0.1425,-0.1426,-0.1435,-0.1457,-0.1468,-0.1531,-0.1524,-0.1533,-0.1542,-0.1605,-0.1606,-0.1607,-0.1591,-0.1591,-0.1591,0,0,0,0,0,0,-0.1263,-0.1304,-0.1312,-0.134,-0.1365,-0.1401,-0.1413,-0.1424,-0.145,-0.145,-0.1477,-0.1485,-0.1512,-0.153,-0.1522,-0.1567,-0.1569,-0.1572,-0.1554,-0.1554,-0.1554,-0.1549,-0.1535,0,0,0,0,0,-0.1262,-0.1284,-0.1319,-0.134,-0.1352,-0.138,-0.1395,-0.141,-0.1437,-0.1447,-0.1472,-0.1498,-0.1524,-0.154,-0.1566,-0.1594,-0.1603,-0.1605,-0.1605,-0.1605,-0.1606,-0.1623,-0.1624,-0.161,-0.161,-0.161,0,0,-0.126,-0.1285,-0.1298,-0.1337,-0.1358,-0.1381,-0.1389,-0.1413,-0.143,-0.1451,-0.1481,-0.15,-0.1531,-0.156,-0.1574,-0.1576,-0.1612,-0.1606,-0.1605,-0.1607,-0.1624,-0.1625,-0.1626,-0.1611,-0.1611,-0.161,0,0,-0.1268,-0.1289,-0.1309,-0.133,-0.1361,-0.138,-0.1385,-0.1419,-0.1432,-0.1462,-0.1478,-0.15,-0.1544,-0.1565,-0.1582,-0.1599,-0.161,-0.1606,-0.1606,-0.1622,-0.1623,-0.1624,-0.163,-0.1632,-0.1608,-0.1608,-0.1608,0,-0.1262,-0.1296,-0.1318,-0.1341,-0.1358,-0.1378,-0.1399,-0.1418,-0.1456,-0.1468,-0.1469,-0.1525,-0.1547,-0.1582,-0.1586,-0.1599,-0.1605,-0.1602,-0.1621,-0.1622,-0.1624,-0.163,-0.1632,-0.1608,-0.1608,-0.1608,-0.1608,0,-0.1287,-0.131,-0.1323,-0.1359,-0.1377,-0.1399,-0.1425,-0.1442,-0.1455,-0.1473,-0.1504,-0.1532,-0.1563,-0.1573,-0.1586,-0.1609,-0.161,-0.1616,-0.1618,-0.1624,-0.163,-0.1633,-0.1607,-0.1607,-0.1607,-0.1607,0,0,-0.1284,-0.1331,-0.1335,-0.1352,-0.1388,-0.1407,-0.143,-0.146,-0.1474,-0.15,-0.152,-0.1557,-0.1563,-0.1582,-0.1598,-0.1612,-0.1624,-0.1617,-0.1618,-0.1617,-0.1651,-0.1646,-0.1648,-0.1631,-0.1632,-0.1632,-0.1649,0,-0.1296,-0.1337,-0.1358,-0.139,-0.1412,-0.1432,-0.1452,-0.1477,-0.1495,-0.1517,-0.1538,-0.1564,-0.157,-0.1581,-0.1596,-0.1619,-0.1631,-0.1618,-0.1651,-0.1652,-0.1642,-0.1652,-0.1646,-0.166,-0.1651,-0.1652,-0.1652,0,-0.1316,-0.1341,-0.1375,-0.1408,-0.1419,-0.1436,-0.1466,-0.1487,-0.1516,-0.1528,-0.1549,-0.1565,-0.1591,-0.1592,-0.1628,-0.1619,-0.1634,-0.1647,-0.1649,-0.1652,-0.1652,-0.1655,-0.1665,-0.1667,-0.1656,-0.1656,-0.1655,0,-0.131,-0.1352,-0.1378,-0.1392,-0.1431,-0.1443,-0.1461,-0.1489,-0.1506,-0.1532,-0.1544,-0.1573,-0.1589,-0.1612,-0.1636,-0.1634,-0.167,-0.1672,-0.1681,-0.1681,-0.1688,-0.1687,-0.17,-0.1698,-0.1698,-0.1698,-0.1698,0,-0.1322,-0.1342,-0.1376,-0.1392,-0.1415,-0.1439,-0.1462,-0.1481,-0.1506,-0.1527,-0.1546,-0.1565,-0.1595,-0.1618,-0.1637,-0.1665,-0.1672,-0.1683,-0.1688,-0.1681,-0.168,-0.1691,-0.1691,-0.1698,-0.1698,-0.1698,-0.1698,0,-0.1319,-0.1342,-0.1372,-0.1407,-0.1416,-0.1432,-0.1462,-0.1479,-0.1498,-0.1524,-0.1532,-0.1563,-0.1591,-0.1617,-0.1655,-0.1668,-0.1696,-0.1702,-0.1685,-0.1688,-0.1695,-0.1694,-0.1716,-0.172,-0.1715,-0.1715,-0.1715,0,-0.1324,-0.134,-0.1376,-0.1391,-0.1408,-0.1431,-0.1448,-0.1473,-0.1491,-0.1525,-0.1537,-0.1567,-0.1592,-0.1637,-0.1663,-0.1692,-0.1699,-0.1705,-0.1704,-0.1697,-0.1699,-0.1698,-0.17,-0.1704,-0.1704,-0.1704,-0.1704,0,-0.1331,-0.1342,-0.1366,-0.1393,-0.1413,-0.1437,-0.1461,-0.1472,-0.1502,-0.152,-0.1549,-0.1568,-0.1607,-0.1636,-0.1668,-0.1688,-0.1701,-0.1704,-0.1708,-0.1701,-0.1691,-0.1697,-0.1684,-0.1704,-0.1704,-0.1704,-0.1704,-0.1704,-0.1333,-0.1348,-0.1375,-0.1401,-0.1422,-0.1444,-0.1461,-0.1483,-0.1507,-0.1539,-0.1553,-0.1582,-0.1611,-0.1656,-0.1675,-0.1699,-0.1702,-0.1707,-0.1708,-0.1709,-0.1708,-0.1687,-0.1705,-0.1705,-0.1705,-0.1705,-0.1705,0,-0.1341,-0.136,-0.1383,-0.1416,-0.1436,-0.1446,-0.1473,-0.149,-0.1515,-0.1541,-0.1565,-0.1598,-0.1627,-0.1656,-0.1686,-0.17,-0.1707,-0.1707,-0.1706,-0.171,-0.1704,-0.1697,-0.1701,-0.1701,-0.1701,-0.1701,-0.1701,-0.1701,-0.1348,-0.1373,-0.1387,-0.1424,-0.1443,-0.1471,-0.1485,-0.1506,-0.1527,-0.1562,-0.1586,-0.1604,-0.1632,-0.1665,-0.1692,-0.17,-0.171,-0.1708,-0.1718,-0.1711,-0.1711,-0.1711,-0.1705,-0.171,-0.171,-0.1723,-0.1723,-0.1723]},{"header":{"parameterUnit":"m.s-1","parameterCategory":1,"la1":30.2991,"la2":30.254,"lo1":-89.0895,"lo2":-89.0444,"dy":0.0017,"dx":0.0017,"nx":28,"ny":28,"refTime":"2024-07-22T09:00:00:Z","depth":0,"parameterNumber":3,"parameterNumberName":"V-component_of_WINDS"},"data":[0,0,0,0,0,0,0,0,0,0,0,0,0,0,0,0,0,0,0,0,0,0,0,0,0,0,0,0,0,0,0,0,0,0,0,0,0,0,0,0,0,0,0,0,0,0,0,0,0,0,0,0,0,0,0,0,0,0,3.5162,3.5161,0,3.5095,3.5094,3.5093,3.5108,3.5109,3.511,3.5112,3.5038,3.5035,3.5032,0,0,0,0,0,0,0,0,0,0,0,0,0,3.5297,3.5294,3.5162,3.5161,3.516,3.5095,3.5094,3.5093,3.5108,3.5109,3.5111,3.5112,3.5039,3.5035,3.5031,0,0,0,0,0,0,0,0,0,0,0,0,0,3.5235,3.5294,3.5162,3.516,3.5159,3.5095,3.5094,3.5093,3.5107,3.5109,3.5111,3.5113,3.504,3.5035,3.5031,3.4964,0,0,3.5016,3.5014,0,0,0,0,0,0,0,0,3.5238,3.523,3.5161,3.516,3.5159,3.5112,3.5115,3.5049,3.5107,3.5127,3.5112,3.5114,3.5061,3.5054,3.5037,3.496,3.4957,3.5016,3.5013,3.5011,3.501,0,0,0,0,0,0,0,3.5243,3.5233,3.5135,3.516,3.5158,3.516,3.5154,3.5102,3.5084,3.5125,3.5126,3.5118,3.506,3.5042,3.5036,3.4956,3.5016,3.5012,3.5009,3.5007,3.4821,3.4819,0,0,0,0,0,0,3.5249,3.5236,3.5137,3.5133,3.5204,3.5156,3.5149,3.5125,3.5084,3.508,3.5117,3.5119,3.5049,3.5041,3.5033,3.4952,3.5011,3.5007,3.5004,3.4823,3.482,3.4818,0,0,0,0,0,0,3.5251,3.524,3.514,3.5185,3.5172,3.5152,3.5125,3.5122,3.5104,3.5078,3.5074,3.5102,3.505,3.504,3.4981,3.4949,3.5005,3.5,3.4825,3.4822,3.4819,3.4789,0,0,0,0,0,0,3.5255,3.5241,3.5216,3.5184,3.517,3.509,3.5123,3.512,3.5097,3.5099,3.5063,3.5059,3.5051,3.4988,3.4977,3.4944,3.4997,3.4828,3.4824,3.482,3.4792,3.4785,3.4778,0,0,0,0,0,3.526,3.5209,3.5215,3.5203,3.5139,3.5089,3.508,3.5074,3.5094,3.5068,3.5052,3.506,3.4955,3.4982,3.4969,3.4935,3.483,3.4825,3.482,3.4796,3.4786,3.4779,0,0,0,0,0,0,3.5235,3.5205,3.5211,3.5148,3.5121,3.5091,3.5059,3.5064,3.503,3.5033,3.5025,3.5017,3.4957,3.494,3.4971,3.4868,3.4895,3.4888,3.4881,3.4872,3.4865,3.487,3.4993,0,0,0,0,0,3.5223,3.5186,3.5161,3.5108,3.5095,3.5079,3.5057,3.5055,3.5025,3.5013,3.4992,3.4962,3.4923,3.4896,3.4859,3.4791,3.4782,3.476,3.4753,3.4748,3.4741,3.4703,3.4693,3.4802,3.4802,3.4802,0,0,3.5196,3.5175,3.5152,3.5103,3.5081,3.5042,3.5069,3.5026,3.4996,3.5006,3.495,3.4934,3.4899,3.4836,3.4807,3.482,3.4709,3.4742,3.4737,3.4733,3.4697,3.4687,3.4678,3.4799,3.4799,3.48,0,0,3.5127,3.5108,3.5062,3.5041,3.5009,3.4999,3.4988,3.4958,3.4947,3.4892,3.4898,3.4862,3.4794,3.4769,3.4748,3.4671,3.4677,3.4659,3.4621,3.4585,3.4576,3.4569,3.454,3.4531,3.4652,3.4652,3.4652,0,3.5097,3.504,3.5037,3.4994,3.4971,3.4981,3.4933,3.4912,3.4869,3.4852,3.4868,3.4784,3.4761,3.4692,3.4673,3.4656,3.4642,3.4662,3.4578,3.457,3.4563,3.4536,3.4526,3.465,3.465,3.4651,3.4651,0,3.5005,3.4965,3.4931,3.4891,3.4865,3.4819,3.4808,3.4782,3.4782,3.477,3.4713,3.4687,3.4644,3.4627,3.4626,3.4558,3.4567,3.4581,3.4608,3.4551,3.4525,3.4515,3.4647,3.4648,3.4648,3.4649,0,0,3.4917,3.4877,3.4864,3.4847,3.4813,3.4781,3.4736,3.4695,3.4673,3.4643,3.4604,3.4547,3.4559,3.4535,3.4531,3.45,3.444,3.4517,3.4516,3.4503,3.4362,3.4351,3.4339,3.4444,3.4442,3.444,3.4364,0,3.4844,3.4766,3.4763,3.4691,3.4653,3.4662,3.4623,3.4597,3.4585,3.455,3.4536,3.4496,3.4516,3.4501,3.447,3.4453,3.4411,3.4459,3.4406,3.4404,3.4413,3.4326,3.4314,3.4244,3.4354,3.4353,3.4351,0,3.4748,3.4718,3.4643,3.4615,3.4599,3.4564,3.4526,3.4494,3.4464,3.4458,3.4431,3.4433,3.4385,3.4415,3.4349,3.4382,3.436,3.4349,3.4346,3.434,3.4374,3.4316,3.4221,3.421,3.4336,3.4337,3.4338,0,3.4691,3.463,3.4578,3.4562,3.4528,3.4503,3.4488,3.446,3.4437,3.4404,3.4388,3.435,3.4328,3.4298,3.4289,3.4312,3.4222,3.4252,3.4214,3.4214,3.4194,3.4195,3.4093,3.4182,3.4182,3.4182,3.4182,0,3.4609,3.4563,3.4552,3.4519,3.4467,3.4463,3.4411,3.4397,3.4373,3.4337,3.4342,3.4308,3.4298,3.4262,3.4254,3.42,3.419,3.4183,3.4181,3.4182,3.4182,3.4166,3.4171,3.4179,3.418,3.418,3.4181,0,3.4535,3.4526,3.4469,3.4443,3.4435,3.4398,3.4374,3.4342,3.4332,3.4286,3.4275,3.4257,3.4215,3.4203,3.4152,3.4147,3.4083,3.4086,3.4093,3.4093,3.4056,3.4059,3.3939,3.3922,3.4023,3.4022,3.4021,0,3.4483,3.4448,3.4418,3.4395,3.4379,3.4342,3.4319,3.4313,3.4288,3.4253,3.4225,3.4184,3.415,3.4082,3.4064,3.4024,3.4026,3.3987,3.402,3.4022,3.4025,3.4026,3.4023,3.398,3.3979,3.3978,3.3977,0,3.4391,3.4389,3.4356,3.4321,3.4293,3.4265,3.4237,3.4218,3.4209,3.418,3.4138,3.4112,3.4061,3.4019,3.398,3.3962,3.3967,3.3967,3.3956,3.3956,3.3961,3.3957,3.4075,3.3969,3.397,3.3971,3.3971,3.3972,3.4326,3.4295,3.427,3.4233,3.4212,3.4187,3.4156,3.4142,3.4108,3.4066,3.4065,3.4019,3.3991,3.3939,3.3919,3.3882,3.3894,3.3878,3.3874,3.387,3.3867,3.3968,3.3875,3.3875,3.3876,3.3876,3.3876,0,3.4234,3.4219,3.4185,3.4147,3.4118,3.4128,3.4098,3.4073,3.4032,3.4007,3.3974,3.3926,3.3886,3.3865,3.3826,3.38,3.3801,3.379,3.3791,3.3787,3.3859,3.3872,3.3789,3.3789,3.3789,3.3789,3.3789,3.3789,3.4183,3.4131,3.4126,3.4064,3.4048,3.4005,3.3987,3.3963,3.3943,3.3889,3.3857,3.3844,3.382,3.3779,3.3743,3.3738,3.3722,3.3709,3.3705,3.3773,3.3782,3.379,3.3802,3.3706,3.3706,3.3636,3.3635,3.3635]}]]